Regional Weather Roundup
Issued by NWS

Home | Current Version | Previous Version | Graphics & Text | Print | Product List | Glossary On
Versions: 1 2 3 4 5 6 7 8 9 10 11 12 13 14 15 16 17 18 19 20 21 22 23 24 25 26 27 28 29 30 31 32 33 34 35 36 37 38 39 40 41 42 43 44 45 46 47 48 49 50
000
ASUS43 KMPX 121201
RWRMN
WEATHER ROUNDUP FOR MINNESOTA
NATIONAL WEATHER SERVICE TWIN CITIES/CHANHASSEN MN
700 AM CDT SAT JUL 12 2014


NOTE: "FAIR" INDICATES FEW OR NO CLOUDS BELOW 12,000 FEET WITH NO
SIGNIFICANT WEATHER AND/OR OBSTRUCTIONS TO VISIBILITY. N/A MEANS
CURRENT SKY AND/OR WEATHER CONDITIONS ARE NOT AVAILABLE.

MNZ060>063-068>070-121300-
   Twin Cities Metro

CITY           SKY/WX    TMP DP  RH WIND       PRES   REMARKS
TWIN CITIES    CLOUDY    71  69  93 S3        30.00F FOG
6HR MIN TEMP:  70; 6HR MAX TEMP:  74;

ST PAUL        CLOUDY    69  68  96 CALM      30.00F FOG
CRYSTAL        CLOUDY    72  68  87 S5        29.99S FOG
BLAINE         CLOUDY    72  72 100 CALM      30.00F FOG
LAKEVILLE      CLOUDY    68  66  94 CALM      30.00F FOG
EDEN PRAIRIE   CLOUDY    70  69  97 S3        29.99F FOG
6HR MIN TEMP:  69; 6HR MAX TEMP:  73;

SOUTH ST PAUL  CLOUDY    69  67  94 CALM      30.00S FOG
LAKE ELMO      PTSUNNY   68  68 100 CALM      30.02S FOG
$$
MNZ001>005-007-008-013>017-022>024-027-028-121300-
   Northwest Minnesota

CITY           SKY/WX    TMP DP  RH WIND       PRES   REMARKS
BEMIDJI        MOSUNNY   56  54  92 CALM      30.03S
HALLOCK        SUNNY     57  55  94 CALM      30.01S
ROSEAU         SUNNY     57  52  82 CALM      30.02S
WARROAD        SUNNY     55  52  88 CALM      30.02S
THIEF RVR FALL MOSUNNY   57  55  94 CALM      30.03S
CROOKSTON      MOSUNNY   57  55  94 NW3       30.04R
FOSSTON        SUNNY     55  52  88 CALM      30.04S
DETROIT LAKES  SUNNY     63  59  88 CALM      30.05S
MOORHEAD       SUNNY     61  61 100 CALM      30.05R
PARK RAPIDS    MOSUNNY   59  57  93 CALM      30.04R
$$
MNZ006-009>011-018-025>026-121300-
   North Central Minnesota

CITY           SKY/WX    TMP DP  RH WIND       PRES   REMARKS
BAUDETTE       SUNNY     57  55  93 CALM      30.03R
FLAG ISLAND    SUNNY     63  57  82 CALM      29.99S HAZE
INTL FALLS     SUNNY     57  55  93 CALM      30.01R
6HR MIN TEMP:  48; 6HR MAX TEMP:  57;

BIG FORK       SUNNY     54  52  94 CALM      30.03S
LONGVILLE      MOSUNNY   57  55  94 CALM      30.03S
GRAND RAPIDS   MOSUNNY   57  55  94 CALM      30.04R
CRANE LAKE     SUNNY     52  52 100 CALM      30.02S
ORR            MOSUNNY   54  52  94 CALM      30.00S
COOK           MOSUNNY   55  54  94 CALM      30.03R
$$
MNZ012-019>021-037-121300-
   Northeast Minnesota

CITY           SKY/WX    TMP DP  RH WIND       PRES   REMARKS
DULUTH         PTSUNNY   63  58  83 N5        30.02R
6HR MIN TEMP:  62; 6HR MAX TEMP:  68;

ELY            SUNNY     55  54  94 CALM      30.01S
HIBBING        MOSUNNY   57  54  89 CALM      30.03R
EVELETH        MOSUNNY   55  54  94 CALM      30.03S
DULUTH HARBOR  CLOUDY    64  63  94 S3        30.01S
TWO HARBORS    PTSUNNY   63  55  77 NW3       29.99R
SILVER BAY     MOSUNNY   63  61  94 CALM      29.99R
GRAND MARAIS     N/A     67  56  67 VRB6      29.96R
G MARAIS ARPRT MOSUNNY   61  54  77 NW3       30.02R
$$
MNZ029>031-032-039>041-046>048-054>057-064-121300-
   West Central Minnesota

CITY           SKY/WX    TMP DP  RH WIND       PRES   REMARKS
FERGUS FALLS   MOSUNNY   66  55  68 CALM      30.03S
WHEATON        CLOUDY    63  57  82 CALM      30.05R
MORRIS         CLOUDY    66  63  88 NE5       30.01F
ALEXANDRIA     CLOUDY    67  57  70 NE7       30.04F
ELBOW LAKE     FAIR      66  59  77 NE6       30.02S
WADENA         MOSUNNY   61  57  88 CALM      30.03F
GLENWOOD       CLOUDY    64  59  82 NE6       30.03F
APPLETON       CLOUDY    70  61  73 NE6       30.00S
BENSON         CLOUDY    70  57  64 E5        30.00F
ORTONVILLE     CLOUDY    68  57  68 N3        30.02R
MADISON        CLOUDY    72  63  73 N5        30.01R
WILLMAR        LGT RAIN  72  64  78 NE6       30.01S
$$
MNZ033>034-036-042>043-049>051-058-059-121300-
   Central Minnesota

CITY           SKY/WX    TMP DP  RH WIND       PRES   REMARKS
ST CLOUD       CLOUDY    69  65  86 N3        30.00S
6HR MIN TEMP:  67; 6HR MAX TEMP:  71;

SAUK CENTRE    FAIR      66  58  77 CALM      30.03F
PAYNESVILLE    CLOUDY    65  61  87 N6        30.02S
AITKIN         MOSUNNY   63  55  77 CALM      30.02S
PINE RIVER       N/A     59  59 100 CALM      30.07R
BRAINERD       PTSUNNY   66  60  81 CALM      30.03S
STAPLES        PTSUNNY   63  57  82 N3        30.03F
LONG PRAIRIE   PTSUNNY   63  59  88 CALM      30.04S
LITTLE FALLS   CLOUDY    63  61  94 CALM      30.03S
LITCHFIELD     CLOUDY    73  72  94 CALM      30.01S
BUFFALO        CLOUDY    70  67  93 S6        30.01R
MAPLE LAKE     FOG       71  71  99 CALM      30.01S VSB 1
$$
MNZ037-044-045-052-053-121300-
   East Central Minnesota

CITY           SKY/WX    TMP DP  RH WIND       PRES   REMARKS
PRINCETON      CLOUDY    68  66  94 CALM      30.01S
MORA           PTSUNNY   63  61  94 CALM      30.03S
CAMBRIDGE      HAZE      70  63  78 NW3       29.99S VSB<1/4
RUSH CITY      CLOUDY    68  67  96 CALM      30.01S FOG
MOOSE LAKE     PTSUNNY   61  59  94 CALM      30.01S
HINCKLEY       FAIR      63  63 100 CALM      30.01S FOG
CLOQUET        PTSUNNY   61  57  88 CALM      30.03R
MCGREGOR       PTSUNNY   59  57  94 CALM      30.04R
$$
MNZ071>073-080-081-089-090-097-098-121300-
   Southwest Minnesota

CITY           SKY/WX    TMP DP  RH WIND       PRES   REMARKS
MONTEVIDEO     CLOUDY    70  63  78 E8        30.00S
GRANITE FALLS  CLOUDY    71  70  96 CALM      30.01R FOG
CANBY          CLOUDY    69  61  76 NW6       30.02R
MARSHALL       CLOUDY    73  70  88 SW13      30.00R THUNDER
REDWOOD FALLS  CLOUDY    73  71  93 SW3       29.98S FOG
OLIVIA         CLOUDY    72  70  94 CALM      29.99S FOG
PIPESTONE      CLOUDY    70  70 100 W3        30.03R FOG
WINDOM         CLOUDY    72  70  94 CALM      30.00F FOG
WORTHINGTON    CLOUDY    73  70  88 SW10      30.02R
JACKSON        CLOUDY    72  68  88 S6        30.00F FOG
TRACY          CLOUDY    71  69  93 SW3       30.00F FOG
SLAYTON        CLOUDY    70  69  96 CALM      30.04R FOG
$$
MNZ065>067-074>077-082>085-091>093-121300-
   South Central Minnesota

CITY           SKY/WX    TMP DP  RH WIND       PRES   REMARKS
MANKATO        CLOUDY    72  66  83 SW5       30.00F
NEW ULM        CLOUDY    72  72 100 S3        29.99F FOG
ST JAMES       CLOUDY    72  70  94 CALM      30.00F FOG
FAIRMONT       CLOUDY    72  66  83 S5        30.01F
GLENCOE        CLOUDY    71  68  91 CALM      30.00S FOG
FARIBAULT      CLOUDY    73  66  78 CALM      30.01F HAZE
OWATONNA       CLOUDY    72  68  88 SW7       30.01F FOG
WASECA         CLOUDY    68  64  88 SW3       30.03F FOG
ALBERT LEA     CLOUDY    72  70  94 CALM      30.02  FOG
$$
MNZ078>079-086>088-094>096-121300-
   Southeast Minnesota

CITY           SKY/WX    TMP DP  RH WIND       PRES   REMARKS
ROCHESTER      CLOUDY    69  67  93 SW8       30.04F FOG
6HR MIN TEMP:  67; 6HR MAX TEMP:  69;

RED WING       CLOUDY    68  66  94 CALM      30.00S FOG
STANTON        CLOUDY    69  67  92 S3        30.00S FOG
DODGE CENTER   CLOUDY    70  68  94 SW7       30.03F FOG
WINONA         CLOUDY    70  66  88 CALM      30.01F
AUSTIN         CLOUDY    70  68  94 CALM      30.02F FOG
PRESTON        CLOUDY    69  68  96 W6        30.04F FOG
$$
ABBREVIATIONS USED IN REMARKS
   TC - TEMPERATURES IN CELSIUS
  WCI - WIND CHILL INDEX
   HX - HEAT INDEX
  VSB - VISIBILITY
$$


USA.gov is the U.S. government's official web portal to all federal, state and local government web resources and services.